Theta_e
307 307 306 306 306 307 307 306 306 305 304 304 306 305 304 305 310 316 318 319 318 316 311 306 304 309 309 309 308 305 303 305 305 306 307 308 308 308 310 308 307 308 308 307 308 307 308
306 306 306 306 306 307 307 306 305 305 305 304 303 305 304 300 299 312 317 318 317 311 310 304 308 309 309 310 307 304 306 305 305 307 308 308 307 307 307 309 309 309 310 309 308 308 307
306 306 305 306 306 306 305 305 305 305 305 304 304 302 300 298 297 304 313 317 315 313 307 305 308 308 308 309 306 305 304 306 306 308 309 308 308 307 307 308 308 309 310 310 309 309 308
305 304 304 306 306 305 304 304 304 305 305 305 304 303 301 298 296 309 313 315 313 311 306 306 307 309 308 307 306 306 306 307 307 308 309 308 309 308 307 308 309 310 309 310 309 309 310
305 304 304 303 305 305 305 304 304 304 304 305 304 303 302 299 298 311 314 314 310 310 306 306 307 308 309 306 306 306 306 306 308 309 309 308 308 307 308 310 311 310 312 311 311 312 311
304 303 302 303 304 304 304 305 305 305 304 304 303 303 303 300 297 307 311 309 307 307 307 307 307 307 308 307 306 305 305 307 308 309 309 308 308 310 310 310 313 312 314 314 317 314 312
304 304 304 303 302 304 303 303 303 303 304 304 304 303 303 302 298 304 310 307 305 305 305 307 308 308 307 307 305 305 306 308 308 309 310 309 311 311 310 310 311 311 312 313 315 312 313
306 304 304 302 303 303 303 303 303 303 303 303 304 304 303 301 303 303 309 307 308 308 308 306 307 308 307 307 306 306 306 308 308 309 310 310 310 310 310 312 311 312 313 314 316 316 314
307 306 304 301 302 302 303 303 303 303 303 303 303 304 303 300 306 308 306 307 308 305 307 306 307 307 307 307 306 305 307 307 308 309 310 311 312 311 312 311 312 313 314 315 317 317 317
307 306 303 299 301 302 301 301 301 302 303 303 302 304 303 299 304 306 304 306 306 305 311 309 307 307 307 307 307 305 308 308 307 309 310 311 311 312 313 314 313 317 314 315 314 318 321
308 304 299 301 301 301 301 301 301 301 304 302 302 303 303 299 306 306 306 305 305 305 316 309 308 307 307 307 306 306 308 308 309 309 310 313 313 314 315 315 314 316 314 315 314 316 320
305 299 301 301 302 301 302 302 301 303 301 302 303 303 300 300 301 304 306 305 303 310 316 311 308 308 308 308 306 306 307 308 308 310 311 312 312 313 314 314 314 314 316 316 317 319 324
305 298 301 300 299 300 301 304 303 301 301 302 302 301 299 303 305 305 304 304 310 314 308 310 309 309 309 310 310 307 308 309 310 315 314 313 313 313 313 313 314 316 315 321 323 323 324
299 301 300 300 299 302 303 302 302 300 299 301 300 300 299 303 303 305 304 305 313 310 309 309 308 309 310 309 309 309 308 310 310 312 314 315 317 313 313 314 315 317 318 323 320 323 323
298 301 300 300 302 301 300 301 300 300 299 300 300 300 302 302 302 303 304 310 314 310 308 309 309 310 309 309 309 309 309 312 312 312 315 315 316 313 313 312 313 317 319 314 319 319 319
301 301 300 298 301 300 300 300 300 300 301 300 301 302 303 302 303 302 305 308 310 306 308 309 311 311 309 309 309 310 312 311 313 312 312 315 319 313 314 314 315 317 315 319 320 322 320
301 300 301 300 300 299 299 300 299 300 300 301 303 303 302 302 301 303 307 310 307 306 307 309 311 310 309 308 311 312 312 313 313 313 312 313 314 317 315 316 317 317 316 315 315 316 318
301 300 301 300 300 299 299 299 300 300 300 300 302 304 301 302 303 303 309 307 304 309 308 310 311 311 311 311 312 313 313 314 313 313 314 312 315 318 316 314 313 315 314 315 319 317 318
301 300 300 300 300 301 301 299 300 300 300 301 303 301 303 302 307 307 305 306 306 309 311 311 312 312 311 312 313 313 314 312 312 313 314 312 315 319 317 315 315 316 315 315 315 319 318
300 301 300 300 302 303 303 302 300 301 301 302 303 305 302 303 305 307 308 308 308 308 310 311 311 311 313 313 313 314 314 313 312 313 309 311 313 315 318 316 315 317 315 314 317 321 317
300 297 297 301 304 305 305 306 304 302 301 301 304 305 305 307 307 307 306 307 308 310 310 311 312 312 313 314 313 314 314 313 312 311 312 313 314 311 312 313 314 315 315 314 316 316 317
295 294 303 303 304 305 305 305 305 305 302 301 304 306 305 306 306 307 305 308 308 309 311 312 312 312 312 313 314 314 314 314 314 313 313 313 316 312 313 312 313 314 314 314 314 314 314
294 301 306 306 306 306 305 305 306 305 301 303 304 306 306 305 305 307 307 308 308 309 309 309 311 312 313 312 312 312 312 312 312 313 313 313 314 316 316 312 312 314 312 313 313 314 314
295 306 307 308 307 306 305 303 305 303 302 305 306 306 307 306 306 307 307 307 308 309 310 309 310 312 309 309 311 312 312 312 312 312 311 313 313 315 316 313 317 311 309 309 312 312 312
301 307 308 308 307 307 306 303 303 303 303 304 305 306 308 306 305 306 306 307 307 308 309 309 308 308 307 309 313 313 313 313 312 312 312 312 313 314 316 314 311 310 310 310 312 312 311
304 307 308 308 307 307 305 304 305 306 305 305 305 305 306 306 305 305 306 307 308 309 310 309 307 307 307 311 312 313 313 313 313 313 311 311 312 313 314 315 313 312 309 308 308 312 311
305 308 309 308 307 307 305 306 306 305 305 305 306 304 304 304 301 302 306 307 306 308 311 309 308 309 307 312 312 312 311 309 312 312 312 313 312 314 313 314 312 310 308 306 311 313 310
304 308 308 308 306 307 306 305 306 305 304 303 302 303 304 303 300 302 303 305 306 308 311 309 310 310 311 313 312 311 310 310 310 310 311 311 311 312 312 313 313 308 307 309 309 310 310
302 307 308 308 307 306 306 306 306 306 306 307 303 304 303 304 301 302 303 304 305 305 306 307 308 310 311 313 310 310 310 309 309 309 308 311 310 311 311 311 307 308 308 306 308 310 310
Wind_Speed
26 26 27 26 25 25 25 25 24 27 27 23 21 23 24 22 19 15 18 29 21 18 15 10 8 7 4 6 8 8 5 4 2 5 8 10 11 13 13 9 15 21 20 26 28 27 28
28 29 28 28 28 25 27 26 25 27 23 26 28 24 24 23 18 20 17 27 25 13 10 8 8 7 6 8 6 6 7 5 4 7 10 12 10 12 13 19 14 16 18 20 27 27 25
28 29 30 27 26 26 28 28 26 28 25 24 27 26 25 22 19 17 16 27 20 12 10 8 9 5 9 10 3 7 8 4 4 6 10 12 13 13 4 10 21 19 18 18 22 23 24
29 31 30 31 29 27 27 29 27 27 26 25 23 25 24 22 18 15 17 24 15 12 9 8 7 7 7 8 5 9 7 6 6 5 5 7 7 14 9 13 14 13 9 13 18 22 25
30 32 31 31 31 31 29 27 28 26 26 25 22 23 23 22 16 10 16 23 13 8 6 7 7 6 5 4 6 5 6 5 6 6 4 1 6 7 8 10 10 13 13 13 17 21 19
30 31 31 33 30 31 32 29 28 27 25 24 23 22 22 22 14 9 15 8 8 11 9 7 6 3 9 4 5 4 4 6 5 4 4 5 7 4 8 7 8 8 9 15 13 8 21
31 31 32 32 34 34 32 30 31 30 27 23 22 19 20 22 18 11 19 10 6 5 11 8 7 4 5 3 4 4 6 5 8 8 5 3 5 9 13 15 17 15 14 14 12 13 19
32 33 32 33 35 34 35 34 31 29 26 25 22 18 17 19 16 15 17 7 6 4 4 16 9 12 3 1 3 7 6 6 10 9 9 3 10 15 10 15 16 13 14 15 4 3 10
35 35 27 38 37 38 38 32 30 31 25 24 19 14 13 11 8 10 14 11 9 4 2 6 12 8 7 6 4 9 7 5 9 10 10 12 13 3 8 7 12 13 14 14 5 4 8
45 26 34 48 34 36 34 35 33 28 27 24 25 13 10 8 7 7 6 7 8 7 2 8 7 5 6 5 4 7 6 6 3 7 10 10 6 6 7 8 7 12 15 5 4 5 2
25 46 51 36 38 37 34 33 32 31 27 19 16 11 9 8 4 3 4 10 10 3 4 7 5 6 6 6 5 7 6 5 7 6 4 4 4 4 7 2 5 6 3 4 12 11 4
42 51 38 39 39 37 35 34 29 29 16 14 11 11 9 6 8 6 5 9 8 3 3 4 5 7 8 8 5 5 4 4 5 5 6 13 2 3 4 2 5 13 9 10 10 11 1
52 41 40 41 37 32 33 28 22 8 7 5 9 10 8 5 1 8 6 13 3 4 5 6 5 6 5 5 7 5 6 8 4 4 4 4 3 3 2 3 4 10 9 3 3 2 3
47 36 40 37 30 32 26 16 12 9 6 5 8 5 9 4 4 11 14 1 5 7 3 2 5 7 2 7 4 6 5 7 7 7 6 2 3 4 6 1 2 2 2 4 2 1 1
37 35 36 31 29 21 24 19 11 9 8 7 7 5 3 4 7 11 4 4 6 4 2 5 9 4 3 4 1 6 6 2 1 1 4 3 2 1 4 3 3 1 4 7 3 6 4
30 30 31 29 23 23 18 13 11 11 9 7 5 4 3 2 10 10 2 5 4 4 3 7 2 2 4 6 5 6 6 1 1 2 4 5 2 4 3 4 8 5 8 4 3 1 5
27 26 25 27 23 22 16 13 9 7 9 6 4 3 3 6 13 4 2 3 3 3 3 3 3 4 5 8 7 1 2 2 3 2 3 4 3 2 4 2 6 1 3 4 3 3 2
26 23 22 21 21 19 15 10 9 7 8 6 3 3 2 15 4 2 2 3 3 6 3 3 3 3 4 5 2 2 4 2 3 5 2 3 4 4 2 2 1 4 7 6 1 4 7
25 22 18 19 15 14 12 8 7 5 6 6 3 4 19 10 2 2 2 3 3 4 2 3 1 2 2 2 1 4 3 0 3 4 8 6 3 1 1 3 1 5 11 9 5 5 5
23 21 18 18 17 17 16 10 4 1 4 6 3 3 4 3 4 5 2 2 3 2 3 4 3 3 4 4 2 4 7 2 2 3 6 5 6 7 7 5 4 5 13 15 6 5 9
21 20 19 19 15 16 17 14 11 4 6 6 2 3 4 2 2 5 4 2 2 3 2 3 2 1 2 3 6 3 2 4 2 1 1 3 4 4 8 7 6 7 10 13 11 6 7
20 20 22 19 17 11 6 7 8 13 11 7 5 5 4 6 7 5 1 3 1 0 3 1 1 3 3 7 7 4 2 2 4 3 4 3 3 1 7 7 6 7 7 9 11 12 12
20 22 22 19 15 8 11 12 9 25 22 5 5 7 5 2 2 3 3 2 4 2 2 5 5 1 6 7 8 7 5 6 5 4 3 4 1 3 3 5 0 4 6 5 5 6 5
19 19 20 19 12 6 7 17 17 26 20 7 8 6 3 3 4 5 2 2 3 3 3 5 8 3 3 5 8 9 9 8 7 7 5 1 2 3 2 4 1 3 2 2 3 3 3
17 17 17 18 11 3 3 15 19 14 10 6 8 1 0 3 6 5 3 4 3 2 3 3 5 3 1 4 2 1 2 1 4 5 5 4 1 1 2 0 0 3 4 2 2 2 3
14 14 18 22 10 5 11 13 12 8 5 6 9 6 1 7 5 3 8 3 2 1 3 3 3 3 4 2 1 1 1 4 0 0 3 3 3 3 1 1 3 5 5 3 1 4 9
12 12 15 19 17 9 15 15 14 12 8 8 9 4 2 5 3 4 8 5 1 1 2 3 4 2 2 2 0 1 1 2 2 2 2 2 2 4 4 2 2 4 6 3 3 3 9
9 9 12 15 12 7 14 14 12 11 4 8 2 4 4 4 7 6 6 3 3 2 3 5 2 2 2 2 2 1 2 1 3 2 2 3 2 3 3 3 4 11 5 4 4 8 9
9 6 7 8 8 4 19 17 10 6 4 6 7 6 12 5 9 9 7 7 5 3 2 4 1 0 2 1 1 1 2 1 3 2 2 3 3 3 4 1 1 14 3 2 3 7 7
Wind_Direction
333 332 331 326 321 319 316 319 323 328 331 319 321 319 317 320 267 271 255 254 272 264 271 279 254 242 273 244 239 236 214 182 245 238 243 264 266 267 253 258 259 263 252 256 261 262 259
335 331 327 325 322 313 312 312 316 317 316 321 328 316 316 315 302 266 253 241 252 238 254 246 231 232 225 249 212 193 184 228 267 253 267 265 248 249 283 272 252 264 270 262 254 254 250
333 332 328 328 322 317 316 312 311 310 309 315 320 323 318 315 307 277 262 234 232 236 232 232 230 209 231 227 188 195 221 243 244 258 279 284 266 216 248 257 258 261 274 265 252 253 245
331 332 329 321 316 315 310 306 307 306 306 309 318 322 323 320 309 295 244 233 222 228 243 206 216 210 252 211 201 227 241 257 246 253 276 302 251 206 224 276 275 256 268 268 259 242 242
330 330 326 320 315 313 308 307 304 304 301 303 309 313 320 320 310 318 220 231 212 236 179 177 171 211 255 235 205 229 215 199 224 267 250 160 141 202 216 231 269 225 257 250 280 259 218
331 328 324 321 315 311 309 309 305 302 301 299 301 302 310 317 309 281 242 190 152 151 151 163 164 225 230 208 176 193 192 200 227 227 225 185 229 268 234 224 247 312 264 291 271 231 213
328 325 324 322 319 312 306 303 303 301 300 300 294 298 304 314 301 254 219 150 157 111 186 202 185 203 131 160 229 201 174 228 227 224 217 215 252 232 246 245 277 283 283 276 282 273 190
325 326 329 323 315 307 302 303 298 298 297 298 300 295 304 316 313 225 217 195 196 158 207 229 230 217 243 214 207 177 183 217 204 235 235 183 245 254 268 263 257 273 271 276 272 261 193
317 318 327 331 311 307 310 307 307 305 295 296 297 287 297 306 298 196 203 226 239 166 165 186 212 230 226 209 226 180 191 229 250 254 236 240 280 223 233 240 234 244 251 262 338 220 242
316 308 310 332 318 315 315 316 313 306 302 291 281 279 282 278 278 271 224 218 203 156 261 150 179 190 177 188 223 184 197 245 224 268 250 266 277 289 304 250 227 263 245 248 198 277 140
321 338 335 331 323 318 313 309 312 306 297 293 290 230 226 242 244 253 236 206 172 167 234 133 136 157 158 194 136 193 198 212 271 254 241 271 286 350 297 238 317 269 302 178 247 272 273
340 341 336 332 329 330 322 308 304 303 303 322 241 209 201 237 242 244 242 172 146 219 166 128 130 174 168 189 172 143 209 215 282 267 250 265 301 226 313 315 256 288 257 227 254 263 356
344 341 342 339 341 335 327 328 324 15 47 53 114 139 177 178 219 218 181 146 225 272 168 132 150 176 196 164 174 188 202 210 238 240 235 191 228 353 299 332 271 251 213 192 203 261 16
341 348 349 349 348 351 350 18 42 42 63 80 103 143 184 196 212 177 171 163 246 75 60 107 139 142 196 146 142 184 214 231 220 259 286 269 188 12 24 271 292 242 268 318 324 76 326
348 355 358 357 3 20 35 54 54 52 66 76 110 167 210 228 191 198 156 242 20 60 101 127 137 153 148 162 324 195 224 243 3 258 305 335 126 298 247 315 313 33 295 335 312 93 54
355 358 1 1 14 20 24 33 33 48 41 89 118 127 109 168 167 173 251 312 55 343 359 182 70 145 168 153 187 234 201 88 80 34 345 10 265 351 296 214 248 241 331 292 241 5 67
357 356 5 2 1 3 13 16 30 57 65 54 70 96 52 160 158 145 254 33 34 305 299 190 317 132 112 149 251 155 52 85 23 38 40 315 284 89 232 27 28 133 339 251 288 326 83
355 355 358 2 359 359 7 14 22 42 26 30 95 81 145 154 96 221 299 44 341 329 200 283 298 31 141 146 104 105 82 59 217 304 294 190 346 40 349 334 292 282 16 7 331 54 67
354 353 354 352 351 349 356 352 11 20 26 79 69 61 131 162 138 156 34 54 291 344 201 350 313 346 240 120 114 91 97 338 309 320 3 358 15 228 23 206 141 34 13 17 33 30 351
351 349 347 347 351 350 351 342 292 268 106 99 98 105 114 345 300 136 83 43 297 44 314 334 344 139 161 87 11 133 127 100 8 14 339 283 45 39 57 52 324 9 20 34 31 57 87
349 346 350 350 355 355 349 331 278 242 161 136 65 84 160 171 154 100 73 304 229 22 269 332 155 263 87 105 103 89 66 131 155 349 60 0 59 20 60 46 53 52 41 45 47 62 101
357 354 358 353 344 347 335 300 248 202 177 131 130 138 79 124 111 97 227 188 63 251 329 2 326 96 330 56 2 141 136 296 17 43 29 29 129 182 68 46 57 58 54 68 69 78 99
360 358 0 355 351 359 325 11 191 175 169 142 151 150 126 80 112 174 182 76 125 321 97 24 342 175 69 36 53 62 54 51 46 358 34 2 59 1 47 9 309 121 19 46 82 53 126
360 5 8 7 6 10 351 70 114 155 146 120 141 151 150 143 191 207 161 96 121 25 350 21 14 350 61 97 92 85 80 76 63 45 7 89 70 359 353 285 213 87 69 348 84 94 88
0 8 10 10 8 27 246 109 116 119 147 164 168 102 204 118 194 230 171 124 116 79 46 36 17 59 69 316 175 172 121 203 47 36 16 356 305 77 280 261 350 183 196 170 220 172 194
357 6 19 8 358 186 187 140 122 127 147 201 205 242 309 145 183 149 183 174 165 92 133 46 46 113 348 296 277 304 -0 13 303 138 9 340 305 278 330 287 238 71 135 134 220 232 171
350 1 27 19 27 151 167 147 137 130 165 225 258 216 113 107 144 146 175 177 129 99 86 117 155 270 342 291 269 324 62 329 268 268 221 193 265 237 218 279 284 135 140 159 217 82 146
345 357 22 34 39 146 171 175 159 158 119 29 233 231 160 111 147 171 156 151 162 231 189 134 151 231 236 259 287 71 289 73 272 336 298 227 234 217 213 240 246 146 122 216 75 126 138
333 342 13 36 79 117 163 167 175 200 246 310 355 89 130 151 160 184 168 163 185 183 134 180 40 56 15 280 264 296 231 232 321 280 195 250 249 319 244 4 36 185 3 142 148 162 159